Location: Passau
(48.5721°N, 13.4363°E)
Time: 12:49:00
(UTC+01:00)

ISS - Visible Passes

Search period start: 22 January 2018 00:00
Search period end: 01 February 2018 00:00
Orbit: 402 x 407 km, 51.6° (Epoch: 22 January)

Date Brightness Start Highest point End Pass type
(mag) Time Alt. Az. Time Alt. Az. Time Alt. Az.
26 Jan -2.3 18:54:23 10° SSW 18:56:24 26° S 18:56:24 26° S visible
27 Jan -2.0 18:02:44 10° S 18:05:06 19° SE 18:06:26 15° ESE visible
27 Jan -1.3 19:37:56 10° WSW 19:39:05 20° WSW 19:39:05 20° WSW visible
28 Jan -3.7 18:45:39 10° SW 18:48:52 57° SSE 18:49:02 55° SE visible
29 Jan -2.9 17:53:33 10° SW 17:56:34 35° SSE 17:58:54 15° E visible
29 Jan -1.9 19:29:41 10° W 19:31:34 30° W 19:31:34 30° W visible
30 Jan -3.9 18:37:14 10° WSW 18:40:30 84° NNW 18:41:23 46° ENE visible
30 Jan -0.2 20:14:01 10° WNW 20:14:01 10° WNW 20:14:01 10° WNW visible
31 Jan -3.7 17:44:52 10° SW 17:48:07 66° SSE 17:51:09 12° ENE visible
31 Jan -2.4 19:21:30 10° W 19:23:48 36° NW 19:23:48 36° NW visible
